Theta_e
297 298 299 299 300 300 299 300 300 299 299 300 300 300 300 300 300 300 300 300 300 300 301 301 302 302 302 304 307 317 319 325 330 327 328 327 324 323 322 321 317 315 315 314
297 298 298 298 298 298 299 299 300 300 299 300 300 300 299 299 300 300 300 300 300 299 300 300 301 302 302 305 310 317 318 328 327 325 327 328 326 323 322 319 318 316 316 315
297 298 297 297 298 299 299 300 300 301 300 300 300 300 300 299 299 299 300 300 299 299 300 300 301 302 302 305 317 314 317 326 326 325 324 325 325 323 322 322 321 319 318 313
296 297 297 297 298 298 296 299 300 301 301 301 300 301 299 298 297 295 294 296 297 298 300 300 301 301 302 303 313 315 319 327 326 325 327 325 326 325 324 322 322 322 322 318
295 296 297 294 298 297 295 297 299 299 300 301 300 301 300 297 295 293 292 292 293 295 298 300 301 301 302 302 307 319 318 323 326 327 323 325 325 326 325 326 326 325 326 323
295 295 296 296 297 297 297 296 297 299 301 301 301 301 298 294 293 292 290 290 291 293 299 299 300 301 301 302 307 314 315 322 324 324 324 326 326 326 326 326 326 328 328 327
293 295 295 296 295 297 295 294 292 295 299 302 303 303 296 292 290 290 289 289 290 294 299 300 300 301 301 302 309 314 317 321 321 322 323 320 326 326 326 326 325 327 328 327
290 292 295 295 295 296 294 295 296 294 300 299 299 301 297 290 289 287 287 296 296 297 298 300 299 300 300 303 314 316 321 321 323 322 321 322 320 321 324 325 325 323 325 323
291 289 295 295 297 293 292 293 292 293 296 298 301 293 294 288 287 286 286 297 297 298 299 304 304 304 304 313 319 319 319 321 321 323 321 319 320 320 320 323 320 320 318 321
292 291 294 296 295 294 293 291 291 294 295 296 298 290 287 285 285 283 286 300 301 301 302 303 306 309 312 314 317 320 320 321 319 318 318 317 317 316 313 313 312 315 311 313
295 291 293 295 295 294 292 290 291 291 295 294 294 290 286 284 283 282 287 297 297 298 298 299 303 305 307 310 315 318 318 318 317 317 315 316 316 316 315 315 312 310 310 309
295 290 290 288 293 295 293 289 289 284 289 289 293 291 285 283 281 282 285 292 294 294 294 295 297 298 302 305 307 310 310 316 310 310 311 310 314 307 305 304 304 305 305 303
292 293 289 292 295 294 294 290 287 289 288 288 288 289 285 281 280 280 282 288 290 292 292 292 293 294 294 296 298 304 305 307 304 306 307 306 307 303 301 301 301 301 300 299
293 291 295 296 296 294 293 291 288 286 282 286 286 284 283 280 279 279 280 283 287 288 288 289 289 291 291 292 294 298 301 301 302 303 302 301 300 298 298 297 297 297 297 297
292 288 287 289 289 294 293 291 288 286 285 286 285 283 282 280 278 278 278 280 283 284 285 286 286 289 288 289 292 294 296 298 298 300 299 298 297 297 297 297 296 295 295 294
290 290 286 286 286 290 294 292 290 287 285 286 285 284 282 279 277 276 276 278 279 280 282 284 285 287 287 288 289 296 297 296 297 297 296 295 293 293 290 289 288 288 286 285
292 291 290 291 292 292 296 292 290 288 285 283 282 282 282 280 277 276 276 276 277 279 279 282 283 284 285 287 292 294 294 295 296 295 292 289 287 287 286 284 284 283 283 283
293 293 285 290 290 300 299 292 290 289 286 283 283 282 281 281 278 276 276 275 278 279 281 283 284 286 288 290 293 294 293 290 289 288 287 285 284 283 282 282 281 281 281 281
291 290 285 292 283 296 296 290 288 288 290 283 282 281 281 284 285 280 276 277 278 279 280 281 284 286 287 287 286 287 286 286 285 283 282 281 281 281 281 281 280 280 280 280
292 287 288 282 292 297 294 289 288 288 294 283 281 280 279 283 285 279 278 279 280 281 282 283 284 285 286 284 284 285 283 282 281 280 280 280 280 280 280 280 279 279 279 278
283 282 285 281 285 289 285 287 288 291 292 283 282 279 279 277 276 276 277 280 281 281 282 283 283 284 282 282 282 281 281 280 279 279 280 280 279 279 279 278 277 277 277 277
289 286 282 277 285 295 287 287 290 285 284 284 283 280 278 277 277 277 279 279 280 281 281 282 282 282 281 281 281 280 279 279 279 279 279 279 278 278 278 278 277 277 277 278
292 290 289 289 290 288 288 286 287 287 287 285 284 283 281 279 278 279 279 279 280 280 280 280 280 280 280 280 280 280 278 279 279 279 279 278 278 278 278 278 278 278 278 277
290 292 289 289 288 287 288 288 288 288 288 287 286 285 283 282 280 280 279 279 280 280 280 280 280 280 279 279 278 278 278 279 279 279 278 278 278 277 277 277 277 277 277 276
292 292 291 289 289 289 289 289 289 288 287 287 286 285 284 283 281 281 280 280 280 279 279 279 279 279 278 278 278 277 278 278 279 278 278 277 277 276 276 276 275 274 274 274
291 291 292 293 294 294 295 292 290 290 289 288 288 286 284 284 283 282 281 280 280 280 279 279 279 279 278 278 277 277 277 277 278 278 277 276 275 275 274 274 274 273 273 274
Wind_Speed
2 2 5 6 6 13 13 13 19 24 18 14 18 20 22 20 27 28 29 29 28 34 27 23 25 21 20 16 21 16 12 20 28 36 33 47 51 41 41 39 35 32 30 27
2 4 2 5 8 11 14 16 20 16 4 10 13 21 21 18 17 28 26 25 26 27 29 23 24 22 17 13 17 12 11 15 22 25 33 44 44 45 46 39 37 33 30 28
4 5 7 9 11 10 16 11 14 17 17 10 11 11 4 6 7 14 13 18 24 26 29 27 23 21 16 10 14 9 9 16 21 20 19 27 36 43 43 44 42 36 31 27
5 3 9 11 5 9 8 5 13 19 15 3 6 5 4 8 11 15 20 20 19 17 24 28 29 21 14 9 12 8 10 13 19 20 28 37 38 39 41 43 39 35 32 30
5 7 9 4 10 13 10 17 21 19 16 10 3 4 4 8 16 23 21 27 24 20 14 20 21 21 11 9 7 12 7 4 13 23 25 38 40 36 37 38 37 37 34 32
5 8 0 3 11 11 13 11 20 2 3 2 1 6 3 9 16 23 20 29 28 22 13 11 12 14 12 6 9 13 6 1 8 14 10 38 30 34 35 35 36 36 35 33
8 4 5 4 11 8 20 15 4 5 3 2 4 4 6 18 23 19 24 36 34 18 11 4 6 11 8 5 8 17 11 10 10 15 9 6 4 22 32 31 32 35 35 34
4 8 7 6 2 9 13 7 4 4 3 5 10 3 1 26 28 28 41 26 12 10 9 6 1 3 3 4 11 18 16 20 18 14 16 6 5 13 16 23 32 28 29 29
5 6 4 6 3 7 9 12 10 4 5 3 3 7 3 31 34 35 44 23 20 21 21 21 17 13 10 11 20 20 13 15 19 18 17 14 10 3 13 10 18 14 14 11
3 6 3 5 7 5 10 11 4 4 5 4 5 6 9 28 27 33 31 24 27 28 26 28 26 25 23 23 30 29 22 23 23 26 30 32 31 23 22 23 24 20 18 17
3 2 8 4 6 15 13 10 3 2 3 3 5 2 10 17 21 24 25 29 30 29 30 32 31 30 32 35 38 38 35 36 37 33 33 30 28 24 23 22 23 24 23 21
2 2 4 6 5 15 17 12 5 3 6 3 3 2 15 18 19 26 31 32 31 30 31 35 37 37 38 39 41 44 42 38 37 37 35 39 29 32 34 36 34 29 30 29
5 3 5 9 2 3 10 22 16 2 3 11 3 6 15 24 24 35 33 34 30 31 33 35 42 42 44 44 46 45 45 42 42 41 42 41 38 36 36 37 35 35 35 35
2 1 1 2 6 4 16 20 19 10 3 5 5 10 20 22 23 31 37 33 30 31 34 37 41 44 43 45 48 50 47 47 45 44 46 46 43 43 42 41 40 39 37 36
3 2 2 4 3 1 13 14 19 17 10 5 8 8 15 16 17 24 28 30 28 35 39 39 40 44 43 45 49 50 51 49 48 48 49 48 44 41 40 40 37 36 35 35
4 3 3 4 2 2 8 18 15 13 10 5 9 5 14 20 24 32 31 30 30 32 35 38 40 43 44 46 49 51 50 48 48 49 48 43 41 40 40 37 36 35 35 34
7 3 4 5 9 4 8 16 10 7 12 3 6 6 12 13 19 25 27 28 33 35 36 39 40 41 42 44 47 49 47 45 46 46 43 41 39 39 38 36 35 36 35 32
5 3 3 3 7 9 4 4 2 8 13 14 5 8 7 2 15 29 33 32 33 35 38 39 39 41 42 45 45 43 42 43 44 43 41 38 37 37 36 35 36 35 33 32
6 2 3 4 2 2 3 6 4 4 8 11 9 14 15 3 7 29 32 30 28 28 32 35 37 40 41 43 42 43 43 42 42 41 39 37 35 36 35 35 34 33 30 30
2 4 3 3 5 2 4 2 4 2 9 13 18 17 16 11 11 4 23 25 28 29 31 35 37 37 37 39 38 40 41 41 42 39 38 35 34 34 33 32 30 29 29 30
4 4 4 2 2 6 4 10 3 5 3 8 10 11 14 5 8 8 15 21 25 28 30 32 34 37 37 34 35 40 40 42 38 36 34 33 32 31 30 29 30 30 30 29
3 3 1 2 4 3 2 0 6 7 9 7 7 7 10 11 12 14 17 21 24 27 28 30 32 34 34 33 33 37 39 35 32 31 31 30 30 29 28 28 29 28 27 27
2 4 3 5 4 1 1 9 16 13 14 9 7 8 9 11 13 15 18 20 23 25 27 29 31 32 31 31 32 34 34 29 27 27 29 28 26 26 26 25 25 26 28 28
3 4 2 3 4 6 8 11 13 14 12 12 11 11 12 15 15 16 17 19 21 23 25 26 27 29 30 29 29 31 28 25 23 26 27 26 26 26 26 26 26 24 25 25
4 10 5 3 3 3 12 17 16 16 15 15 14 14 15 15 16 15 17 18 20 21 22 22 24 26 28 26 27 25 23 20 22 25 25 25 24 24 24 23 24 25 25 24
12 7 6 6 22 8 21 26 23 22 21 19 19 20 17 14 15 16 17 18 19 19 20 20 21 22 23 22 23 23 20 18 18 21 23 24 23 22 21 21 20 21 22 23
Wind_Direction
332 279 248 270 238 265 278 275 278 280 287 283 270 270 268 262 252 257 261 261 262 267 271 264 266 262 271 279 226 233 269 229 221 219 223 210 205 208 216 215 218 218 217 214
324 256 291 287 296 300 292 280 278 281 250 303 283 274 278 273 255 252 249 257 259 265 269 262 258 264 270 281 231 225 261 220 222 211 208 222 212 207 218 218 219 219 219 216
263 276 313 329 322 333 317 276 276 284 317 254 277 283 281 304 324 299 279 282 269 263 273 265 249 258 271 269 220 223 278 228 205 209 235 225 211 205 215 220 220 219 218 218
276 324 335 327 299 339 300 241 303 293 306 275 61 291 10 15 17 5 346 332 327 325 265 268 259 248 255 259 223 198 258 221 208 205 212 204 217 214 218 220 221 219 219 220
277 326 339 323 329 324 255 300 292 285 274 281 253 226 17 14 348 340 331 321 314 313 304 260 261 251 234 253 224 182 207 124 214 213 239 224 217 222 219 227 226 224 223 224
265 293 226 259 302 305 322 305 309 328 233 213 300 202 57 11 333 324 320 311 304 302 289 254 253 244 237 245 211 166 150 155 191 187 233 205 208 223 221 225 229 229 228 225
329 328 317 315 333 333 348 347 337 1 13 230 343 247 70 354 349 329 314 305 294 287 281 234 212 201 222 195 185 158 173 98 76 89 105 250 195 221 226 231 233 232 229 228
12 331 13 322 2 315 335 345 344 312 326 318 310 352 134 3 332 341 339 312 292 324 326 348 109 201 202 152 149 142 128 99 114 116 108 111 75 325 248 240 227 226 224 220
341 289 307 308 342 23 340 341 303 254 239 249 344 2 229 345 348 347 342 40 66 67 77 85 91 94 106 112 133 142 136 115 96 98 103 73 52 353 142 180 165 172 158 173
283 300 330 342 17 51 341 345 1 349 349 342 64 50 343 343 342 333 341 34 54 63 66 76 86 90 102 117 128 136 126 113 109 105 94 82 73 59 80 103 105 115 106 108
279 140 305 4 15 10 8 12 345 276 305 345 344 48 356 341 338 329 338 25 38 50 62 77 91 98 106 112 112 114 110 110 105 101 98 90 77 85 87 79 83 84 84 81
317 219 292 245 205 51 32 7 340 72 344 349 318 65 10 354 336 344 353 15 34 46 59 72 82 93 101 106 106 107 108 105 101 100 99 96 94 93 91 92 89 86 85 85
336 1 338 348 348 28 17 14 17 106 25 17 23 319 352 353 348 359 2 10 27 44 55 64 76 79 84 95 101 105 105 105 103 100 95 92 91 88 89 90 90 90 89 89
84 360 53 6 303 321 8 20 25 37 58 323 44 325 350 354 356 351 357 7 25 39 51 59 66 76 81 89 94 98 98 97 98 97 94 93 93 93 92 91 91 91 92 91
61 29 21 257 233 333 29 22 24 39 13 46 331 16 356 360 349 349 356 10 26 39 48 58 64 82 80 86 95 98 100 99 99 96 93 91 92 93 92 90 90 90 88 88
7 322 53 298 329 227 37 29 29 39 14 16 345 30 354 4 9 9 4 12 27 37 46 63 71 84 85 92 96 98 98 98 97 94 93 95 94 92 89 89 89 89 88 87
358 341 23 325 341 73 15 16 22 44 38 304 22 315 332 12 14 12 9 20 28 41 49 70 76 85 90 92 96 98 99 99 96 94 94 93 92 89 88 87 85 82 79 78
341 2 36 297 348 38 333 29 120 70 39 26 15 353 333 70 49 34 33 30 46 62 69 75 83 88 92 95 96 97 96 94 93 92 91 90 89 89 89 85 82 80 79 76
191 90 52 83 30 270 2 5 4 13 31 20 1 3 2 217 79 37 39 53 60 70 80 84 87 92 96 97 98 98 95 92 90 89 89 89 88 86 83 80 78 76 74 72
166 109 110 42 90 72 232 286 326 269 39 21 18 11 6 15 70 342 36 58 70 76 83 89 93 93 93 92 95 94 92 92 91 92 91 89 87 83 80 78 76 75 73 72
353 4 92 42 117 286 250 307 126 71 213 71 49 50 49 52 82 56 62 73 78 83 86 90 91 89 91 93 94 91 89 88 90 90 88 86 83 80 79 80 77 72 68 66
154 116 186 92 70 339 235 289 129 160 134 117 99 83 84 92 97 92 89 89 91 91 92 91 92 92 93 92 90 89 87 88 87 84 81 80 78 76 73 70 69 67 63 58
311 182 191 176 207 241 97 115 128 137 142 150 137 123 119 115 108 104 98 97 96 96 97 97 97 97 95 92 89 88 88 89 88 83 78 75 73 72 72 69 65 60 53 47
249 178 154 74 232 225 185 154 154 159 159 158 153 148 143 130 123 115 111 108 106 105 105 104 104 101 98 94 90 88 90 87 83 79 76 73 69 65 60 56 53 50 48 40
204 149 171 262 275 228 220 200 181 173 168 163 160 156 151 145 135 130 124 120 117 115 113 113 107 103 100 98 96 92 87 82 78 74 71 68 64 61 56 51 48 44 40 32
191 178 174 215 189 177 194 186 183 181 176 173 169 164 162 156 146 141 133 129 126 124 122 119 114 111 109 109 105 98 87 76 73 76 73 69 65 61 56 51 46 43 37 29